Home   Weather   Rostock   Past weeks

Flag for Germany Past Weather in Rostock, Mecklenburg-Western Pomerania, Germany — Yesterday and Last 2 Weeks

Now
34 °F

Chilly.


Feels Like: 29 °F
Forecast: 32 / 50 °F
Wind: 6 mph from Southwest

Location: Laage

Current Time: Apr 26, 2017 at 2:14:34 am

Latest Report: Apr 26, 2017 at 1:20 am


Visibility: N/A

Pressure: 29.74 "Hg

Humidity: 81%

Dew Point: 28 °F

Location of RostockLocation

Past Weather in Rostock — Graph

°F

Rostock Temperature Yesterday

Maximum temperature yesterday: 45 °F (at 5:20 pm)
Minimum temperature yesterday: 34 °F (at 4:20 am)
Average temperature yesterday: 39 °F

High & Low Weather Summary for the Past Weeks

 TemperatureHumidityPressure
High57 °F (Apr 21, 3:20 pm)100% (Apr 12, 4:20 am)30.60 "Hg (Apr 12, 4:20 am)
Low27 °F (Apr 20, 3:20 am)42% (Apr 19, 2:20 pm)29.56 "Hg (Apr 25, 7:00 am)
Average42 °F77%29.98 "Hg
* Reported Apr 11 12:20 am — Apr 26 12:20 am, Rostock, Weather by CustomWeather, © 2017

Note: Actual official high and low records may vary slightly from our data, if they occured in-between our weather recording intervals... More about our weather records

Advertising

Rostock Weather History for the Previous 24 Hours

Scroll right to see more
 ConditionsComfort  
Time TempWeatherWind HumidityBarometerVisibility
12:20 am
Wed, Apr 26
36 °FChilly.7 mph75%29.74 "HgN/A
11:20 pm
Tue, Apr 25
37 °FPassing clouds.7 mph70%29.74 "HgN/A
10:20 pm37 °FPassing clouds.6 mph75%29.74 "HgN/A
9:20 pm39 °FPassing clouds.6 mph75%29.71 "HgN/A
8:20 pm41 °FPassing clouds.5 mph70%29.71 "HgN/A
7:20 pm43 °FPassing clouds.12 mph61%29.68 "HgN/A
6:20 pm43 °FPassing clouds.13 mph61%29.68 "HgN/A
5:20 pm45 °FPassing clouds.17 mph66%29.65 "HgN/A
4:20 pm43 °FBroken clouds.9 mph76%29.62 "HgN/A
3:20 pm43 °FBroken clouds.14 mph76%29.59 "HgN/A
2:20 pm41 °FBroken clouds.12 mph81%29.59 "HgN/A
1:20 pm41 °FPartly sunny.3 mph87%29.59 "HgN/A
12:20 pm37 °FLight rain. Partly sunny.3 mph93%29.59 "Hg4 mi
12:06 pm37 °FLight rain. Partly sunny.2 mph87%29.59 "Hg4 mi
11:48 am39 °FRain. Fog.6 mph81%29.59 "Hg2 mi
11:36 am39 °FLight rain. Partly sunny.5 mph81%29.56 "Hg3 mi
10:20 am39 °FPartly sunny.5 mph87%29.59 "HgN/A
9:37 am37 °FBroken clouds.3 mph93%29.59 "HgN/A
8:36 am36 °FPartly sunny.2 mph93%29.56 "Hg6 mi
7:47 am36 °FBroken clouds.2 mph93%29.56 "Hg5 mi
7:20 am34 °FPartly sunny.3 mph100%29.56 "Hg4 mi
7:00 am34 °FBroken clouds.2 mph100%29.56 "Hg4 mi
6:20 am34 °FLight rain. Partly sunny.2 mph100%29.59 "Hg4 mi
5:20 am34 °FLight rain. Partly cloudy.2 mph100%29.59 "Hg4 mi
4:20 am34 °FLight rain. Partly cloudy.3 mph93%29.62 "Hg5 mi
3:20 am36 °FRain. Mostly cloudy.5 mph93%29.62 "Hg4 mi
2:20 am39 °FRain. Passing clouds.9 mph81%29.65 "Hg5 mi
Weather by CustomWeather, © 2017

See weather overviewHow to use our weather pages